Location: Clarion
(42.7316°N, 93.7330°W)
Time: 08:52:08
(UTC+00:00)

NPP - Pass Details

Date: 22 April 2026
Orbit: 825 x 829 km, 98.8° (Epoch: 17 May)

Event Time Altitude Azimuth Distance (km) Brightness Sun altitude
Rises 07:48:40 0° 18° (NNE) 3,373 8.0 -30.9°
Reaches altitude 10° 07:51:05 10° 22° (NNE) 2,435 7.0 -30.7°
Enters shadow 07:56:00 55° 84° (E) 992 4.1 -30.2°
